QPF
0.00 0.00 0.00 0.00 0.00 0.00 0.02 0.09 0.16 0.25 0.45 0.36 0.18 0.04 0.02 0.00 0.00 0.00 0.00 0.00 0.00 0.00 0.00 0.00 0.00 0.00 0.00 0.00 0.00 0.00 0.00 0.00
0.00 0.00 0.01 0.02 0.01 0.03 0.07 0.18 0.29 0.32 0.11 0.02 0.00 0.00 0.00 0.00 0.00 0.00 0.00 0.00 0.00 0.00 0.00 0.00 0.00 0.00 0.00 0.00 0.00 0.00 0.00 0.00
0.00 0.00 0.00 0.01 0.04 0.06 0.05 0.06 0.03 0.00 0.00 0.00 0.00 0.00 0.00 0.00 0.00 0.00 0.00 0.00 0.00 0.00 0.00 0.00 0.00 0.00 0.00 0.00 0.00 0.00 0.00 0.00
0.00 0.00 0.00 0.01 0.01 0.00 0.00 0.00 0.00 0.00 0.00 0.00 0.00 0.00 0.00 0.00 0.00 0.00 0.00 0.00 0.00 0.00 0.00 0.00 0.00 0.00 0.00 0.00 0.00 0.00 0.00 0.00
0.00 0.00 0.00 0.00 0.00 0.00 0.00 0.00 0.00 0.00 0.00 0.00 0.00 0.00 0.00 0.00 0.00 0.00 0.00 0.00 0.00 0.00 0.00 0.00 0.00 0.00 0.00 0.00 0.00 0.00 0.00 0.00
0.00 0.00 0.00 0.00 0.00 0.00 0.00 0.00 0.00 0.00 0.00 0.00 0.00 0.00 0.00 0.00 0.00 0.00 0.00 0.00 0.00 0.00 0.00 0.00 0.00 0.00 0.00 0.00 0.00 0.00 0.00 0.00
0.00 0.00 0.00 0.00 0.00 0.00 0.00 0.00 0.00 0.00 0.00 0.00 0.00 0.00 0.00 0.00 0.00 0.00 0.00 0.00 0.00 0.00 0.00 0.00 0.00 0.00 0.00 0.00 0.00 0.00 0.00 0.00
0.00 0.00 0.00 0.00 0.00 0.00 0.00 0.00 0.00 0.00 0.00 0.00 0.00 0.00 0.00 0.00 0.00 0.00 0.00 0.00 0.00 0.00 0.00 0.00 0.00 0.00 0.00 0.00 0.00 0.00 0.00 0.00
0.00 0.00 0.00 0.00 0.00 0.00 0.00 0.00 0.00 0.00 0.00 0.00 0.00 0.00 0.00 0.00 0.00 0.00 0.00 0.00 0.00 0.00 0.00 0.00 0.00 0.00 0.00 0.00 0.00 0.00 0.00 0.00
0.00 0.00 0.00 0.00 0.00 0.00 0.00 0.00 0.00 0.00 0.00 0.00 0.00 0.00 0.00 0.00 0.00 0.00 0.00 0.00 0.00 0.00 0.00 0.00 0.00 0.00 0.00 0.00 0.00 0.00 0.01 0.01
0.00 0.00 0.00 0.00 0.00 0.00 0.00 0.00 0.00 0.00 0.00 0.00 0.00 0.00 0.00 0.00 0.00 0.00 0.00 0.00 0.00 0.00 0.00 0.00 0.00 0.00 0.00 0.01 0.01 0.01 0.01 0.00
0.00 0.00 0.00 0.00 0.00 0.00 0.00 0.00 0.00 0.00 0.00 0.00 0.00 0.00 0.00 0.00 0.00 0.00 0.00 0.00 0.00 0.00 0.00 0.00 0.00 0.00 0.00 0.00 0.00 0.00 0.00 0.00
0.00 0.00 0.00 0.00 0.00 0.00 0.00 0.00 0.00 0.00 0.00 0.00 0.00 0.00 0.00 0.00 0.00 0.00 0.00 0.00 0.00 0.00 0.00 0.00 0.00 0.00 0.00 0.00 0.00 0.00 0.00 0.00
0.00 0.00 0.00 0.00 0.00 0.00 0.00 0.00 0.00 0.00 0.00 0.00 0.00 0.00 0.00 0.00 0.00 0.00 0.00 0.00 0.00 0.00 0.00 0.00 0.01 0.00 0.00 0.00 0.00 0.00 0.00 0.00
0.00 0.00 0.00 0.00 0.00 0.00 0.00 0.00 0.00 0.00 0.00 0.00 0.00 0.00 0.00 0.00 0.00 0.00 0.00 0.00 0.00 0.00 0.00 0.00 0.00 0.01 0.01 0.01 0.00 0.00 0.00 0.00
0.00 0.00 0.00 0.00 0.00 0.00 0.00 0.00 0.00 0.00 0.00 0.00 0.00 0.00 0.00 0.00 0.00 0.00 0.00 0.00 0.00 0.00 0.00 0.00 0.01 0.03 0.01 0.00 0.00 0.00 0.00 0.00
0.00 0.00 0.00 0.00 0.00 0.00 0.00 0.00 0.00 0.00 0.00 0.00 0.00 0.00 0.00 0.00 0.00 0.00 0.00 0.00 0.00 0.00 0.00 0.00 0.00 0.00 0.00 0.00 0.00 0.00 0.00 0.00
0.00 0.00 0.00 0.00 0.00 0.00 0.00 0.00 0.00 0.00 0.00 0.00 0.00 0.00 0.00 0.00 0.00 0.00 0.00 0.00 0.00 0.00 0.00 0.00 0.00 0.00 0.00 0.00 0.00 0.00 0.00 0.00
0.00 0.00 0.00 0.00 0.00 0.00 0.00 0.00 0.00 0.00 0.00 0.00 0.00 0.00 0.00 0.00 0.00 0.00 0.00 0.00 0.00 0.00 0.00 0.00 0.00 0.00 0.00 0.00 0.00 0.00 0.00 0.00
MSLP
1020.70 1020.54 1020.55 1020.68 1021.10 1021.57 1022.16 1022.71 1023.22 1023.80 1022.72 1023.68 1023.92 1024.92 1024.55 1024.45 1024.44 1024.41 1024.40 1024.52 1024.76 1024.75 1024.90 1025.10 1025.06 1025.06 1025.14 1025.10 1025.05 1024.96 1024.57 1024.23
1021.06 1020.75 1020.80 1021.04 1021.25 1021.61 1021.88 1022.32 1022.98 1022.91 1023.83 1024.54 1024.62 1025.02 1024.72 1024.49 1024.54 1024.68 1024.78 1024.91 1025.09 1025.18 1025.22 1025.35 1025.38 1025.32 1025.53 1025.52 1025.32 1025.03 1024.48 1024.46
1021.26 1021.10 1021.19 1021.11 1021.26 1021.60 1022.21 1022.30 1022.98 1022.84 1023.55 1023.91 1023.94 1024.42 1024.65 1024.70 1024.97 1025.25 1025.51 1025.59 1025.36 1025.31 1025.46 1025.51 1025.62 1025.56 1025.77 1025.77 1025.60 1025.11 1024.71 1024.66
1021.49 1021.51 1021.50 1021.56 1021.61 1021.76 1022.07 1022.34 1022.50 1023.01 1023.54 1023.97 1024.16 1024.43 1024.92 1025.08 1025.19 1025.15 1025.55 1025.71 1025.53 1025.69 1025.71 1025.71 1025.83 1025.84 1025.76 1025.71 1025.53 1025.31 1024.85 1024.76
1021.59 1021.62 1021.66 1021.92 1022.09 1022.04 1021.99 1022.58 1023.03 1023.46 1023.76 1023.99 1024.13 1024.03 1024.32 1024.88 1025.21 1025.41 1025.61 1025.88 1025.67 1025.95 1025.88 1025.82 1025.82 1025.81 1025.70 1025.57 1025.46 1025.46 1025.27 1024.81
1021.29 1021.50 1021.82 1022.41 1022.69 1022.72 1022.84 1022.94 1023.60 1023.85 1023.85 1024.01 1024.32 1024.50 1024.92 1025.14 1025.51 1025.57 1025.72 1025.95 1025.91 1025.96 1025.86 1025.75 1025.60 1025.52 1025.51 1025.55 1025.51 1025.44 1025.42 1025.37
1021.39 1021.61 1021.85 1022.21 1022.82 1023.05 1022.98 1023.33 1023.59 1023.95 1024.14 1024.29 1024.49 1024.81 1025.21 1025.29 1025.46 1025.53 1025.72 1025.79 1025.70 1025.74 1025.66 1025.56 1025.44 1025.32 1025.34 1025.45 1025.60 1025.57 1025.47 1025.37
1021.22 1021.70 1022.17 1022.59 1022.95 1023.29 1023.49 1023.54 1024.07 1024.43 1024.44 1024.64 1024.79 1025.19 1025.30 1025.19 1025.36 1025.46 1025.49 1025.41 1025.36 1025.26 1025.33 1025.28 1025.31 1025.45 1025.53 1025.58 1025.45 1025.35 1025.25 1025.11
1021.33 1021.79 1022.24 1022.61 1023.15 1023.47 1023.59 1023.84 1024.26 1024.57 1024.76 1024.81 1025.02 1025.14 1025.12 1025.31 1025.46 1025.46 1025.38 1025.18 1024.90 1024.83 1025.03 1025.21 1025.32 1025.29 1025.18 1025.18 1025.08 1024.92 1024.91 1024.91
1021.44 1022.04 1022.47 1022.86 1023.26 1023.74 1024.00 1024.22 1024.58 1024.93 1025.14 1025.11 1025.18 1025.31 1025.48 1025.57 1025.61 1025.54 1025.38 1025.19 1025.09 1025.12 1025.12 1025.05 1024.85 1024.77 1024.77 1024.74 1024.59 1024.42 1024.47 1024.53
1021.83 1022.42 1022.96 1023.37 1023.74 1024.16 1024.40 1024.70 1025.09 1025.24 1025.09 1025.25 1025.44 1025.62 1025.70 1025.72 1025.63 1025.37 1025.32 1025.16 1025.06 1024.95 1024.74 1024.59 1024.45 1024.39 1024.38 1024.39 1024.24 1024.14 1024.39 1024.40
1022.39 1022.93 1023.39 1023.83 1024.16 1024.46 1024.73 1025.07 1025.23 1025.27 1025.31 1025.50 1025.59 1025.58 1025.57 1025.43 1025.32 1025.22 1025.10 1025.01 1024.69 1024.53 1024.36 1024.13 1024.04 1024.01 1023.98 1024.02 1024.20 1024.40 1024.44 1024.53
1022.86 1023.38 1023.78 1023.98 1024.34 1024.69 1024.94 1025.16 1025.24 1025.21 1025.41 1025.46 1025.44 1025.43 1025.38 1025.39 1025.35 1025.17 1024.99 1024.70 1024.37 1024.18 1024.09 1024.06 1024.06 1024.07 1023.94 1024.11 1024.15 1024.22 1024.42 1024.50
1023.24 1023.71 1023.87 1024.04 1024.49 1024.88 1025.12 1025.33 1025.36 1025.45 1025.48 1025.43 1025.34 1025.44 1025.51 1025.49 1025.38 1025.19 1024.89 1024.67 1024.36 1024.13 1024.08 1024.00 1024.06 1024.10 1024.15 1024.29 1024.26 1024.21 1024.43 1024.52
1023.25 1023.58 1023.90 1024.25 1024.70 1025.21 1025.18 1025.37 1025.52 1025.50 1025.43 1025.44 1025.53 1025.62 1025.63 1025.53 1025.35 1025.08 1024.86 1024.64 1024.29 1024.07 1023.97 1024.02 1024.14 1024.33 1024.37 1024.58 1024.25 1024.30 1024.42 1024.45
1023.24 1023.65 1024.18 1024.53 1024.90 1025.16 1025.44 1025.49 1025.45 1025.58 1025.61 1025.60 1025.55 1025.59 1025.54 1025.36 1025.13 1024.92 1024.69 1024.52 1024.30 1024.17 1024.09 1024.12 1024.48 1024.42 1024.19 1024.22 1024.22 1024.28 1024.27 1024.24
1023.35 1023.91 1024.34 1024.52 1024.83 1025.27 1025.55 1025.59 1025.65 1025.78 1025.62 1025.43 1025.42 1025.44 1025.34 1025.14 1024.94 1024.79 1024.61 1024.47 1024.24 1024.12 1024.21 1024.26 1024.15 1024.08 1024.39 1024.39 1024.29 1024.26 1024.32 1024.22
1023.30 1023.68 1024.13 1024.59 1024.95 1025.28 1025.51 1025.70 1025.83 1025.73 1025.64 1025.44 1025.30 1025.19 1025.05 1024.93 1024.86 1024.60 1024.31 1024.19 1024.11 1024.05 1024.01 1024.05 1024.16 1024.19 1024.38 1024.41 1024.69 1024.46 1024.39 1024.23
1023.10 1023.58 1024.07 1024.56 1024.96 1025.34 1025.74 1025.79 1025.78 1025.83 1025.67 1025.41 1025.11 1024.90 1024.78 1024.69 1024.58 1024.33 1024.11 1023.91 1023.75 1023.69 1023.84 1024.01 1024.14 1024.33 1024.45 1024.54 1024.70 1024.38 1024.30 1024.08
Thickness
5639 5642 5642 5641 5637 5632 5626 5621 5614 5606 5611 5590 5588 5577 5578 5578 5576 5572 5568 5563 5556 5551 5545 5540 5536 5533 5530 5528 5526 5523 5523 5523
5633 5637 5637 5633 5632 5628 5624 5617 5600 5603 5584 5578 5575 5567 5568 5565 5560 5556 5551 5546 5541 5537 5532 5527 5523 5520 5515 5512 5509 5508 5508 5504
5627 5629 5628 5628 5625 5620 5614 5612 5599 5598 5587 5578 5574 5566 5561 5556 5551 5545 5539 5533 5530 5525 5518 5514 5509 5504 5498 5494 5491 5491 5490 5485
5619 5618 5619 5618 5615 5612 5608 5603 5598 5588 5576 5569 5565 5559 5551 5545 5540 5535 5528 5522 5519 5513 5509 5504 5498 5492 5488 5483 5479 5474 5472 5466
5614 5612 5611 5608 5604 5601 5599 5591 5583 5576 5569 5563 5559 5557 5551 5539 5531 5525 5518 5512 5510 5503 5499 5494 5488 5482 5475 5469 5462 5454 5447 5443
5611 5609 5605 5598 5592 5588 5584 5580 5571 5566 5561 5555 5549 5542 5535 5528 5519 5513 5508 5501 5498 5492 5487 5481 5475 5467 5459 5451 5442 5432 5423 5414
5605 5602 5597 5591 5583 5578 5575 5570 5565 5556 5550 5544 5538 5531 5523 5516 5509 5504 5497 5491 5486 5478 5472 5465 5458 5450 5440 5430 5418 5407 5396 5387
5600 5594 5587 5581 5576 5569 5564 5560 5551 5543 5538 5532 5527 5519 5513 5509 5501 5494 5487 5481 5474 5467 5458 5449 5439 5429 5418 5406 5396 5385 5374 5362
5596 5590 5584 5577 5568 5562 5557 5550 5541 5534 5527 5523 5516 5510 5505 5498 5489 5482 5476 5470 5463 5454 5443 5432 5421 5410 5399 5387 5374 5363 5350 5336
5592 5584 5577 5570 5563 5553 5546 5539 5531 5524 5517 5513 5506 5499 5491 5485 5477 5470 5463 5454 5446 5437 5427 5416 5405 5393 5380 5367 5354 5340 5325 5310
5582 5574 5565 5559 5551 5541 5534 5526 5518 5512 5508 5500 5492 5485 5478 5470 5463 5457 5449 5442 5432 5422 5411 5399 5386 5372 5359 5345 5331 5314 5300 5289
5572 5564 5555 5546 5538 5531 5523 5515 5508 5502 5495 5487 5480 5473 5466 5459 5452 5444 5435 5425 5416 5404 5391 5379 5367 5353 5338 5324 5308 5292 5280 5272
5560 5551 5543 5536 5528 5520 5511 5504 5498 5492 5483 5476 5469 5462 5454 5446 5437 5427 5417 5408 5398 5386 5374 5360 5345 5331 5316 5301 5290 5279 5269 5261
5548 5540 5533 5527 5516 5508 5501 5491 5485 5478 5471 5465 5458 5449 5440 5430 5421 5411 5401 5392 5381 5369 5355 5341 5326 5309 5294 5282 5275 5268 5259 5252
5540 5532 5524 5516 5506 5495 5490 5482 5473 5467 5460 5452 5443 5434 5425 5416 5407 5397 5387 5376 5365 5352 5337 5321 5304 5289 5278 5269 5266 5259 5252 5245
5532 5523 5513 5504 5494 5485 5476 5469 5462 5453 5446 5438 5430 5421 5412 5403 5394 5382 5370 5358 5347 5333 5317 5301 5286 5275 5269 5265 5259 5252 5245 5239
5522 5511 5501 5493 5484 5474 5464 5456 5448 5440 5433 5427 5419 5408 5398 5388 5377 5366 5355 5341 5328 5313 5297 5285 5275 5267 5260 5255 5250 5245 5237 5230
5510 5501 5492 5482 5473 5462 5453 5444 5435 5428 5421 5413 5405 5395 5385 5373 5361 5350 5340 5325 5310 5295 5283 5273 5263 5258 5252 5247 5240 5235 5228 5222
5501 5492 5481 5471 5460 5450 5439 5431 5423 5414 5407 5399 5391 5382 5371 5359 5346 5334 5322 5309 5296 5284 5271 5261 5254 5249 5244 5238 5232 5227 5221 5215